Flag for U.S.A. Weather past 2 weeks in Grand Prairie, Texas, U.S.A.

Now
61 °F

Sunny.


Feels Like: 61 °F
Forecast: 51 / 64 °F
Wind: 7 mph from Northwest

Location: Grand Prairie Municipal Airport

Current Time: Dec 22, 2014 at 4:26:31 PM

Latest Report: Dec 22, 2014 at 3:50 PM


Visibility: 10 mi

Pressure: 29.62 "Hg

Humidity: 59%

Dew point: 46 °F

Location of Grand PrairieLocation

Historic Weather in Grand Prairie — Graph

°F

Grand Prairie temperature yesterday

Maximum temperature yesterday: 52 °F (at 2:50 PM)
Minimum temperature yesterday: 46 °F (at 7:50 AM)
Average temperature yesterday: 49 °F

Past Weeks' High & Low Weather Summary

 TemperatureHumidityPressure
High70 °F (Dec 12, 1:50 PM)100% (Dec 8, 1:55 AM)30.40 "Hg (Dec 8, 1:55 AM)
Low41 °F (Dec 9, 7:50 AM)34% (Dec 15, 2:50 PM)29.58 "Hg (Dec 22, 1:50 PM)
Average52 °F85%30.16 "Hg
* Reported Dec 7 2:50 PM — Dec 22 2:50 PM, Grand Prairie, Weather by CustomWeather, © 2014

Note: Actual official high and low records may vary slightly from our data, if they occured in-between our weather recording intervals... More about our weather records

Advertising

Grand Prairie weather history for previous 24 hours

 ConditionsComfort  
Time TempWeatherWind HumidityBarometerVisibility
2:50 PM
Dec 22
63 °FSunny.9 mph52%29.60 "Hg10 mi
1:50 PM64 °FSunny.9 mph46%29.58 "Hg10 mi
12:50 PM64 °FSunny.12 mph46%29.60 "Hg10 mi
11:50 AM63 °FSunny.16 mph49%29.61 "Hg10 mi
10:50 AM63 °FSunny.13 mph52%29.62 "Hg10 mi
9:50 AM59 °FSunny.12 mph77%29.62 "Hg10 mi
7:50 AM52 °FSunny.6 mph100%29.61 "Hg10 mi
5:35 AMN/AClear.N/AN/A29.61 "Hg10 mi
5:15 AM52 °FClear.N/A89%29.62 "Hg10 mi
4:55 AMN/APassing clouds.N/AN/A29.62 "Hg10 mi
4:15 AM53 °FPassing clouds.N/A86%29.64 "Hg10 mi
3:55 AMN/AOvercast.N/AN/A29.64 "Hg10 mi
3:15 AM53 °FOvercast.N/A86%29.64 "Hg10 mi
2:55 AM53 °FPassing clouds.N/A86%29.66 "Hg10 mi
2:35 AMN/APassing clouds.N/AN/A29.66 "Hg10 mi
2:15 AM53 °FOvercast.N/A86%29.67 "Hg10 mi
1:55 AM54 °FOvercast.N/A85%29.70 "Hg10 mi
1:35 AM54 °FOvercast.N/A86%29.70 "Hg10 mi
1:15 AM54 °FOvercast.N/A87%29.71 "Hg10 mi
12:55 AMN/AOvercast.N/AN/A29.71 "Hg10 mi
12:35 AMN/AOvercast.N/AN/A29.72 "Hg10 mi
12:15 AMN/AOvercast.N/AN/A29.73 "Hg10 mi
11:55 PM
Dec 21
N/AOvercast.N/AN/A29.74 "Hg10 mi
11:15 PMN/AMostly cloudy.N/AN/A29.75 "Hg10 mi
10:55 PMN/AMostly cloudy.N/AN/A29.77 "Hg10 mi
10:15 PMN/AMostly cloudy.N/AN/A29.79 "Hg10 mi
9:35 PM52 °FMostly cloudy.N/A89%29.80 "Hg10 mi
9:15 PMN/AMostly cloudy.N/AN/A29.81 "Hg10 mi
8:55 PMN/AMostly cloudy.N/AN/A29.81 "Hg10 mi
8:35 PMN/AMostly cloudy.N/AN/A29.82 "Hg10 mi
8:15 PMN/AMostly cloudy.N/AN/A29.83 "Hg10 mi
7:55 PM51 °FMostly cloudy.N/A88%29.83 "Hg10 mi
7:35 PMN/AMostly cloudy.N/AN/A29.83 "Hg10 mi
7:15 PM51 °FMostly cloudy.N/A86%29.83 "Hg10 mi
4:50 PM52 °FOvercast.12 mph82%29.87 "Hg10 mi
Weather by CustomWeather, © 2014

See weather overviewHow to use our weather pages